MDT,Max TemperatureF,Mean TemperatureF,Min TemperatureF,Max Dew PointF,MeanDew PointF,Min DewpointF,Max Humidity, Mean Humidity, Min Humidity, Max Sea Level PressureIn, Mean Sea Level PressureIn, Min Sea Level PressureIn, Max VisibilityMiles, Mean VisibilityMiles, Min VisibilityMiles, Max Wind SpeedMPH, Mean Wind SpeedMPH, Max Gust SpeedMPH,PrecipitationIn, CloudCover, Events, WindDirDegrees
2013-8-1,88,67,46,48,44,39,77,48,18,30.26,30.01,29.94,10,10,10,16,9,20,T,1,Rain-Thunderstorm,187
2013-8-2,89,68,47,49,43,37,80,49,17,30.14,29.94,29.87,10,10,10,20,7,26,0.00,1,,228
2013-8-3,87,70,53,55,47,41,67,46,25,30.21,30.03,29.92,10,10,2,29,8,35,T,2,Rain-Thunderstorm,131
2013-8-4,90,69,47,49,44,36,86,52,17,30.25,30.04,29.97,10,10,10,29,6,36,0.00,1,Thunderstorm,164
2013-8-5,89,72,55,48,45,38,67,42,17,30.16,29.99,29.91,10,10,10,25,7,32,0.00,1,Thunderstorm,120
2013-8-6,89,68,46,53,45,33,86,51,15,30.17,30.01,29.91,10,10,2,30,6,43,0.12,2,Rain-Thunderstorm,138
2013-8-7,85,67,48,49,41,25,86,51,16,30.08,29.95,29.84,10,10,10,38,4,52,T,1,Rain,158
2013-8-8,82,65,47,45,41,31,82,50,17,30.13,29.98,29.91,10,10,10,28,5,37,0.00,0,Thunderstorm,105
2013-8-9,80,63,46,47,42,36,77,49,21,30.20,30.07,29.99,10,10,7,21,6,25,0.01,1,Rain-Thunderstorm,81
2013-8-10,86,67,48,47,42,34,80,50,20,30.30,30.13,30.06,10,10,8,31,6,40,0.01,3,Rain-Thunderstorm,170
2013-8-11,85,64,42,45,40,31,89,52,15,30.22,30.11,30.02,10,10,10,24,5,36,0.00,0,,278
2013-8-12,84,64,43,43,39,31,76,46,15,30.25,30.10,30.03,10,10,10,26,5,35,0.00,1,Thunderstorm,245
2013-8-13,85,68,51,53,45,36,77,49,20,30.31,30.14,30.01,10,9,1,21,6,24,0.12,3,Rain-Thunderstorm,108
2013-8-14,87,65,43,46,40,25,89,50,10,30.22,30.11,30.00,10,10,10,10,5,13,0.00,0,,66
2013-8-15,90,64,38,42,34,18,85,46,7,30.15,30.07,30.01,10,10,10,16,4,22,0.00,0,,317
2013-8-16,94,67,40,39,29,14,70,38,6,30.14,30.05,29.99,10,10,10,16,2,20,0.00,0,,281
2013-8-17,93,67,41,49,33,22,70,39,8,30.13,30.02,29.93,10,10,10,15,3,22,0.00,0,,312
2013-8-18,91,69,46,47,41,36,77,46,14,30.18,30.02,29.94,10,10,10,29,4,49,T,1,Rain-Thunderstorm,358
2013-8-19,93,71,48,49,41,29,80,46,11,30.11,29.98,29.91,10,10,10,13,2,16,0.00,0,,92
2013-8-20,91,69,47,52,43,38,66,41,16,30.16,30.00,29.92,10,10,10,35,6,40,T,2,Rain-Thunderstorm,175
2013-8-21,90,74,57,55,49,46,84,58,32,30.07,30.03,29.96,10,10,10,16,4,23,T,1,Rain,140
2013-8-22,85,69,52,48,45,42,72,48,23,30.13,30.03,29.95,10,10,10,16,3,21,0.00,1,,288
2013-8-23,87,73,58,55,49,45,72,51,29,30.18,29.99,29.82,10,10,9,30,7,39,0.03,4,Rain-Thunderstorm,220
2013-8-24,82,65,47,51,47,41,93,60,26,30.08,30.01,29.92,10,10,10,23,4,26,T,1,,262
2013-8-25,78,67,56,60,53,48,84,61,38,30.16,30.11,30.02,10,10,9,17,4,22,0.09,6,Rain,202
2013-8-26,80,68,55,57,54,51,93,66,39,30.19,30.12,30.06,10,10,10,22,4,28,0.01,3,,265
2013-8-27,87,68,49,54,51,48,96,63,29,30.14,30.05,29.95,10,10,10,18,4,25,0.00,2,,342
2013-8-28,90,70,50,53,48,42,89,54,19,30.08,30.01,29.93,10,10,10,13,4,18,0.00,1,,324
2013-8-29,92,70,48,52,45,39,80,49,17,30.14,30.07,30.01,10,10,10,12,2,21,0.00,0,,67
2013-8-30,91,71,50,52,46,39,77,47,17,30.29,30.09,29.98,10,10,10,22,4,29,T,3,Rain-Thunderstorm,112
2013-8-31,90,71,52,53,49,45,83,54,25,30.14,30.02,29.93,10,10,9,25,5,32,0.01,1,Rain-Thunderstorm,161